This demonstration page uses our WeatherBlox Daily Observations layout. Learn more.

Left ArrowRight Arrow

Hourly Observations for June 20, 2021

Temp ( °F °C ) Dew Point ( °F °C ) Humidity (%) Winds ( mph kmh ) Pressure ( in mb ) Visibility ( mi km ) Precip ( " mm )
12:53 am 00:53 Mostly Clear 72 22.2 70 21.1 94 94 N N/A 29.81 1010 8 13 N/A
1:53 am 01:53 Mostly Cloudy 74 23.3 70 21.1 88 88 N N/A 29.79 1009 9 14 N/A
2:53 am 02:53 Cloudy 75 23.9 70 21.1 84 84 VRB 5 7 29.79 1009 10 16 N/A
3:53 am 03:53 Cloudy 76 24.4 70 21.1 82 82 VRB 3 6 29.80 1009 10 16 N/A
4:53 am 04:53 Mostly Cloudy 75 23.9 70 21.1 84 84 VRB 3 6 29.80 1009 10 16 N/A
5:53 am 05:53 Mostly Cloudy 73 22.8 70 21.1 90 90 N N/A 29.81 1010 7 11 N/A
6:53 am 06:53 Sunny 72 22.2 70 21.1 94 94 S 3 6 29.82 1010 10 16 N/A
7:53 am 07:53 Sunny 76 24.4 70 21.1 82 82 VRB 3 6 29.80 1009 10 16 N/A
8:53 am 08:53 Sunny 78 25.6 70 21.1 76 76 VRB 3 6 29.82 1010 10 16 N/A
9:53 am 09:53 Sunny 78 25.6 70 21.1 76 76 VRB 5 7 29.83 1010 10 16 N/A
10:53 am 10:53 Sunny 82 27.8 71 21.7 69 69 SW 7 11 29.80 1009 10 16 N/A
11:53 am 11:53 Mostly Sunny 84 28.9 72 22.2 67 67 VRB 7 11 29.80 1009 10 16 N/A
12:53 pm 12:53 Partly Cloudy 86 30 71 21.7 61 61 VRB 3 6 29.79 1009 10 16 N/A
1:53 pm 13:53 Mostly Cloudy 86 30 71 21.7 61 61 VRB 3 6 29.77 1008 10 16 N/A
2:53 pm 14:53 Partly Cloudy 86 30 72 22.2 63 63 VRB 7 11 29.75 1008 10 16 N/A
3:53 pm 15:53 Mostly Cloudy 88 31.1 72 22.2 59 59 VRB 6 9 29.73 1007 10 16 N/A
4:53 pm 16:53 Mostly Sunny 88 31.1 72 22.2 59 59 WSW 8 13 29.72 1007 10 16 N/A
5:53 pm 17:53 Sunny 87 30.6 72 22.2 61 61 WSW 7 11 29.73 1007 10 16 N/A
6:53 pm 18:53 Mostly Sunny 87 30.6 71 21.7 59 59 SW 7 11 29.72 1006 10 16 N/A
7:53 pm 19:53 Mostly Sunny 85 29.4 71 21.7 63 63 VRB 6 9 29.70 1006 10 16 N/A
8:53 pm 20:53 Mostly Sunny 83 28.3 72 22.2 70 70 N N/A 29.69 1005 10 16 N/A
9:53 pm 21:53 Partly Cloudy 82 27.8 70 21.1 67 67 VRB 3 6 29.70 1006 8 13 N/A
10:53 pm 22:53 Clear 80 26.7 70 21.1 71 71 VRB 3 6 29.71 1006 10 16 N/A
11:53 pm 23:53 Clear 80 26.7 69 20.6 69 69 VRB 5 7 29.69 1005 10 16 N/A

Powered by AerisWeather